Home   Weather   The Settlement   Past weeks

Flag for Christmas Island Past Weather in The Settlement, Christmas Island — Yesterday and Last 2 Weeks

Now
77 °F

Overcast.


Feels Like: 78 °F
Forecast: 76 / 82 °F
Wind: 8 mph from Southeast

Location: Christmas Island Aerodrome

Current Time: Sep 1, 2016 at 4:54:04 AM

Latest Report: Sep 1, 2016 at 4:00 AM


Visibility: N/A

Pressure: 29.95 "Hg

Humidity: 89%

Dew Point: 73 °F

Location of The SettlementLocation

Past Weather in The Settlement — Graph

°F

The Settlement Temperature Yesterday

Maximum temperature yesterday: 82 °F (at 9:30 AM)
Minimum temperature yesterday: 73 °F (at 2:30 AM)
Average temperature yesterday: 78 °F

High & Low Weather Summary for the Past Weeks

 TemperatureHumidityPressure
High84 °F (Aug 30, 2:00 PM)100% (Aug 23, 11:00 PM)30.01 "Hg (Aug 23, 11:00 PM)
Low70 °F (Aug 23, 11:00 PM)61% (Aug 22, 5:30 AM)29.83 "Hg (Aug 23, 1:05 PM)
Average77 °F82%29.90 "Hg
* Reported Aug 17 3:00 AM — Sep 1 3:00 AM, The Settlement, Weather by CustomWeather, © 2016

Note: Actual official high and low records may vary slightly from our data, if they occured in-between our weather recording intervals... More about our weather records

Advertising

The Settlement Weather History for the Previous 24 Hours

Scroll right to see more
 ConditionsComfort  
Time TempWeatherWind HumidityBarometerVisibility
3:00 AM
Thu, Sep 1
77 °FPassing clouds.5 mph89%29.95 "HgN/A
2:30 AM77 °FPassing clouds.6 mph89%29.95 "HgN/A
2:00 AM77 °FPassing clouds.6 mph89%29.95 "HgN/A
1:00 AM77 °FMostly cloudy.8 mph89%29.98 "HgN/A
12:00 AM77 °FMostly cloudy.7 mph89%29.98 "HgN/A
11:30 PM
Wed, Aug 31
77 °FMostly cloudy.6 mph89%29.98 "HgN/A
11:00 PM77 °FMostly cloudy.7 mph89%30.01 "HgN/A
10:00 PM77 °FMostly cloudy.6 mph94%30.01 "HgN/A
9:00 PM77 °FPartly cloudy.7 mph94%29.98 "HgN/A
8:00 PM79 °FPartly cloudy.6 mph84%29.98 "HgN/A
7:30 PM77 °FPassing clouds.6 mph89%29.95 "HgN/A
7:00 PM79 °FPartly cloudy.6 mph84%29.95 "HgN/A
6:00 PM79 °FPassing clouds.7 mph89%29.92 "HgN/A
5:00 PM79 °FBroken clouds.7 mph89%29.92 "HgN/A
4:03 PM81 °FBroken clouds.8 mph84%29.92 "HgN/A
3:00 PM81 °FPartly sunny.7 mph84%29.92 "HgN/A
2:00 PM82 °FMostly cloudy.8 mph79%29.95 "HgN/A
1:30 PM81 °FMostly cloudy.8 mph79%29.95 "HgN/A
1:00 PM81 °FCloudy.8 mph84%29.95 "HgN/A
12:30 PM82 °FPartly sunny.9 mph74%29.98 "HgN/A
12:00 PM82 °FPartly sunny.8 mph79%29.98 "HgN/A
11:30 AM82 °FPartly sunny.8 mph79%29.98 "HgN/A
11:00 AM82 °FMostly cloudy.6 mph79%29.98 "HgN/A
10:30 AM81 °FBroken clouds.8 mph79%30.01 "HgN/A
10:00 AM81 °FPartly sunny.7 mph84%30.01 "HgN/A
9:30 AM82 °FBroken clouds.7 mph74%30.01 "HgN/A
9:00 AM81 °FBroken clouds.7 mph84%30.01 "HgN/A
8:00 AM79 °FPartly sunny.7 mph84%29.98 "HgN/A
7:00 AM77 °FSunny.5 mph89%29.95 "HgN/A
6:30 AM75 °FScattered clouds.3 mph94%29.95 "HgN/A
6:04 AM75 °FScattered clouds.3 mph94%29.95 "HgN/A
5:30 AM75 °FPassing clouds.5 mph94%29.92 "HgN/A
5:00 AM73 °FPassing clouds.No wind100%29.92 "HgN/A
4:30 AM73 °FPassing clouds.No wind94%29.92 "HgN/A
4:00 AM73 °FPassing clouds.No wind100%29.92 "HgN/A
Weather by CustomWeather, © 2016

See weather overviewHow to use our weather pages